No particular awareness of the weather is required.    There are no Weather-warnings


Meteo18 Weather Cam more information Meteo18 Weather Cam


Thunder radar more information blitzortung!


Rain radar more information rain snow radar


Visit our other weather sites:

Template documentation
and downloads

And another site



Weather Underground History page Text

Daily Summary for January 4, 2017 Units:  English    Metric   Both
« Previous Day
Next Day »
Daily Weekly Monthly Yearly Custom
  High: Low: Average:
Temperature: TemperatureC °F -2.5 °F -0.7 °F
Dew Point: DewpointC °F -2.9 °F -1.2 °F
Humidity: Humidity % 95 % 96 %
Wind Speed: WindSpeedKMH mph 0.0 mph 6 mph
Wind Gust: WindSpeedGustKMH mph - -
Wind:- - West
Pressure: PressurehPa in 1024.9 in -
Precipitation: 0.5 in    
Historical Graphs
 
 
Tabular Data for January 4, 2017
Time Temperature Dew Point Pressure Wind Wind Speed Wind Gust Humidity Rainfall Rate (Hourly)
TemperatureC °F DewpointC °F PressurehPa in Calm     Humidity % HourlyPrecipMM in
00:02 -2.4 °F -2.8 °F 1030.4 in SW 4.8 mph 11.3 mph 97 % 0.0 in
00:07 -2.3 °F -2.7 °F 1030.4 in SSW 6.4 mph 9.7 mph 97 % 0.0 in
00:12 -2.2 °F -2.6 °F 1030.4 in WSW 8.0 mph 12.9 mph 97 % 0.0 in
00:17 -2.2 °F -2.6 °F 1030.0 in SSW 4.8 mph 12.9 mph 97 % 0.0 in
00:22 -2.2 °F -2.6 °F 1030.0 in WSW 3.2 mph 12.9 mph 97 % 0.0 in
00:32 -2.1 °F -2.5 °F 1030.0 in Calm   9.7 mph 97 % 0.0 in
00:42 -2.1 °F -2.5 °F 1030.0 in WSW 1.6 mph 9.7 mph 97 % 0.0 in
00:47 -2.0 °F -2.4 °F 1030.0 in SW 6.4 mph 8.0 mph 97 % 0.0 in
00:52 -1.9 °F -2.3 °F 1030.0 in SW 3.2 mph 8.0 mph 97 % 0.0 in
00:57 -1.9 °F -2.3 °F 1030.0 in West 6.4 mph 8.0 mph 97 % 0.0 in
01:02 -1.9 °F -2.3 °F 1029.7 in SW 1.6 mph 8.0 mph 97 % 0.0 in
01:12 -1.9 °F -2.3 °F 1029.7 in SW 1.6 mph 8.0 mph 97 % 0.0 in
01:17 -2.0 °F -2.4 °F 1029.3 in WSW 4.8 mph 8.0 mph 97 % 0.0 in
01:22 -2.1 °F -2.5 °F 1029.3 in SW 6.4 mph 8.0 mph 97 % 0.0 in
01:27 -2.1 °F -2.5 °F 1029.3 in Calm   8.0 mph 97 % 0.0 in
01:32 -2.1 °F -2.5 °F 1029.3 in WSW 3.2 mph 9.7 mph 97 % 0.0 in
01:37 -2.1 °F -2.5 °F 1029.3 in West 3.2 mph 9.7 mph 97 % 0.0 in
01:42 -2.1 °F -2.5 °F 1029.3 in West 9.7 mph 9.7 mph 97 % 0.0 in
01:47 -2.2 °F -2.6 °F 1029.3 in WSW 8.0 mph 12.9 mph 97 % 0.0 in
01:52 -2.2 °F -2.6 °F 1029.3 in SW 8.0 mph 12.9 mph 97 % 0.0 in
01:57 -2.2 °F -2.6 °F 1029.3 in SW 12.9 mph 12.9 mph 97 % 0.0 in
02:02 -2.2 °F -2.6 °F 1029.3 in SW 9.7 mph 16.1 mph 97 % 0.0 in
02:07 -2.2 °F -2.6 °F 1029.3 in WSW 3.2 mph 16.1 mph 97 % 0.0 in
02:12 -2.2 °F -2.6 °F 1029.0 in WSW 1.6 mph 14.5 mph 97 % 0.0 in
02:17 -2.2 °F -2.6 °F 1029.0 in WSW 3.2 mph 11.3 mph 97 % 0.0 in
02:22 -2.2 °F -2.6 °F 1029.3 in SW 6.4 mph 9.7 mph 97 % 0.0 in
02:27 -2.2 °F -2.6 °F 1029.0 in SW 3.2 mph 9.7 mph 97 % 0.0 in
02:32 -2.2 °F -2.6 °F 1028.7 in SW 12.9 mph 12.9 mph 97 % 0.0 in
02:37 -2.2 °F -2.6 °F 1029.0 in WSW 8.0 mph 12.9 mph 97 % 0.0 in
02:42 -2.2 °F -2.6 °F 1029.0 in WSW 4.8 mph 12.9 mph 97 % 0.0 in
02:47 -2.1 °F -2.5 °F 1029.0 in SSW 4.8 mph 12.9 mph 97 % 0.0 in
02:52 -2.1 °F -2.5 °F 1029.0 in SW 6.4 mph 12.9 mph 97 % 0.0 in
02:57 -2.1 °F -2.5 °F 1029.3 in SW 3.2 mph 12.9 mph 97 % 0.0 in
03:02 -2.1 °F -2.5 °F 1029.3 in WSW 1.6 mph 11.3 mph 97 % 0.0 in
03:07 -2.1 °F -2.5 °F 1029.3 in SW 3.2 mph 8.0 mph 97 % 0.0 in
03:12 -2.1 °F -2.5 °F 1029.3 in WSW 3.2 mph 8.0 mph 97 % 0.0 in
03:17 -2.1 °F -2.5 °F 1029.3 in WSW 4.8 mph 6.4 mph 97 % 0.0 in
03:22 -2.2 °F -2.6 °F 1029.3 in West 6.4 mph 6.4 mph 97 % 0.0 in
03:27 -2.3 °F -2.7 °F 1029.3 in West 4.8 mph 9.7 mph 97 % 0.0 in
03:37 -2.4 °F -2.8 °F 1029.3 in SW 8.0 mph 11.3 mph 97 % 0.0 in
03:42 -2.4 °F -2.8 °F 1029.3 in SSW 6.4 mph 8.0 mph 97 % 0.0 in
03:52 -2.4 °F -2.8 °F 1029.0 in SW 4.8 mph 8.0 mph 97 % 0.0 in
03:57 -2.4 °F -2.8 °F 1029.0 in SW 4.8 mph 8.0 mph 97 % 0.0 in
04:02 -2.4 °F -2.8 °F 1028.7 in Calm   8.0 mph 97 % 0.0 in
04:07 -2.4 °F -2.8 °F 1028.7 in WSW 4.8 mph 8.0 mph 97 % 0.0 in
04:12 -2.4 °F -2.8 °F 1028.7 in WSW 1.6 mph 8.0 mph 97 % 0.0 in
04:17 -2.3 °F -2.7 °F 1028.7 in West 1.6 mph 8.0 mph 97 % 0.0 in
04:22 -2.3 °F -2.7 °F 1028.7 in WSW 3.2 mph 8.0 mph 97 % 0.0 in
04:27 -2.3 °F -2.7 °F 1028.7 in West 3.2 mph 8.0 mph 97 % 0.0 in
04:32 -2.3 °F -2.7 °F 1028.7 in SW 4.8 mph 8.0 mph 97 % 0.0 in
04:37 -2.3 °F -2.7 °F 1028.7 in WSW 1.6 mph 11.3 mph 97 % 0.0 in
04:42 -2.3 °F -2.7 °F 1028.7 in SW 3.2 mph 11.3 mph 97 % 0.0 in
04:47 -2.3 °F -2.7 °F 1028.7 in WNW 3.2 mph 12.9 mph 97 % 0.0 in
04:52 -2.3 °F -2.7 °F 1028.7 in West 4.8 mph 12.9 mph 97 % 0.0 in
04:57 -2.4 °F -2.8 °F 1028.7 in WSW 4.8 mph 11.3 mph 97 % 0.0 in
05:02 -2.4 °F -2.8 °F 1028.7 in SSW 3.2 mph 11.3 mph 97 % 0.0 in
05:07 -2.4 °F -2.8 °F 1028.7 in SSW 4.8 mph 12.9 mph 97 % 0.0 in
05:12 -2.4 °F -2.8 °F 1028.3 in SW 9.7 mph 12.9 mph 97 % 0.0 in
05:17 -2.4 °F -2.8 °F 1028.3 in SSW 4.8 mph 12.9 mph 97 % 0.0 in
05:22 -2.4 °F -2.8 °F 1028.3 in SSW 4.8 mph 16.1 mph 97 % 0.0 in
05:32 -2.4 °F -2.8 °F 1028.3 in SW 6.4 mph 14.5 mph 97 % 0.0 in
05:37 -2.3 °F -2.7 °F 1028.3 in SW 3.2 mph 14.5 mph 97 % 0.0 in
05:42 -2.3 °F -2.7 °F 1028.3 in SSW 6.4 mph 14.5 mph 97 % 0.0 in
05:47 -2.3 °F -2.7 °F 1028.3 in SSW 8.0 mph 12.9 mph 97 % 0.0 in
05:52 -2.3 °F -2.7 °F 1028.3 in WSW 3.2 mph 12.9 mph 97 % 0.0 in
05:57 -2.3 °F -2.7 °F 1028.0 in WSW 3.2 mph 12.9 mph 97 % 0.0 in
06:02 -2.3 °F -2.7 °F 1028.0 in WSW 6.4 mph 11.3 mph 97 % 0.0 in
06:07 -2.3 °F -2.7 °F 1028.0 in SSW 3.2 mph 11.3 mph 97 % 0.0 in
06:12 -2.3 °F -2.7 °F 1028.0 in SW 4.8 mph 9.7 mph 97 % 0.0 in
06:17 -2.2 °F -2.6 °F 1027.7 in SW 9.7 mph 12.9 mph 97 % 0.0 in
06:22 -2.3 °F -2.7 °F 1027.7 in SW 4.8 mph 14.5 mph 97 % 0.0 in
06:32 -2.4 °F -2.8 °F 1027.7 in SW 3.2 mph 14.5 mph 97 % 0.0 in
06:37 -2.3 °F -2.7 °F 1027.7 in SW 1.6 mph 12.9 mph 97 % 0.0 in
06:42 -2.3 °F -2.7 °F 1027.7 in WNW 4.8 mph 11.3 mph 97 % 0.0 in
06:47 -2.4 °F -2.8 °F 1027.7 in SW 8.0 mph 11.3 mph 97 % 0.0 in
06:57 -2.4 °F -2.8 °F 1027.7 in SW 9.7 mph 12.9 mph 97 % 0.0 in
07:02 -2.4 °F -2.8 °F 1027.7 in SW 4.8 mph 12.9 mph 97 % 0.0 in
07:07 -2.4 °F -2.8 °F 1027.7 in SW 3.2 mph 14.5 mph 97 % 0.0 in
07:12 -2.4 °F -2.8 °F 1027.7 in SW 6.4 mph 14.5 mph 97 % 0.0 in
07:17 -2.3 °F -2.7 °F 1027.7 in SW 1.6 mph 12.9 mph 97 % 0.0 in
07:22 -2.3 °F -2.7 °F 1027.7 in SSW 3.2 mph 8.0 mph 97 % 0.0 in
07:27 -2.3 °F -2.7 °F 1027.7 in SSW 6.4 mph 12.9 mph 97 % 0.0 in
07:32 -2.4 °F -2.8 °F 1027.7 in WSW 9.7 mph 14.5 mph 97 % 0.0 in
07:37 -2.4 °F -2.8 °F 1027.3 in WSW 8.0 mph 16.1 mph 97 % 0.0 in
07:42 -2.4 °F -2.8 °F 1027.3 in West 6.4 mph 16.1 mph 97 % 0.0 in
07:47 -2.4 °F -2.8 °F 1027.7 in West 4.8 mph 16.1 mph 97 % 0.0 in
07:52 -2.4 °F -2.8 °F 1027.7 in SW 8.0 mph 16.1 mph 97 % 0.0 in
07:57 -2.4 °F -2.8 °F 1027.7 in SW 4.8 mph 12.9 mph 97 % 0.0 in
08:02 -2.5 °F -2.9 °F 1027.7 in SW 9.7 mph 12.9 mph 97 % 0.0 in
08:07 -2.4 °F -2.8 °F 1027.7 in SW 6.4 mph 12.9 mph 97 % 0.0 in
08:12 -2.4 °F -2.8 °F 1027.7 in WSW 8.0 mph 12.9 mph 97 % 0.0 in
08:17 -2.4 °F -2.8 °F 1027.3 in WSW 11.3 mph 11.3 mph 97 % 0.0 in
08:22 -2.3 °F -2.7 °F 1027.3 in WSW 11.3 mph 14.5 mph 97 % 0.0 in
08:27 -2.3 °F -2.7 °F 1027.7 in WSW 9.7 mph 14.5 mph 97 % 0.0 in
08:32 -2.3 °F -2.7 °F 1027.7 in SW 8.0 mph 14.5 mph 97 % 0.0 in
08:37 -2.3 °F -2.7 °F 1027.7 in WSW 8.0 mph 14.5 mph 97 % 0.0 in
08:42 -2.3 °F -2.7 °F 1027.7 in WSW 6.4 mph 11.3 mph 97 % 0.0 in
08:47 -2.2 °F -2.6 °F 1027.7 in SW 11.3 mph 11.3 mph 97 % 0.0 in
08:57 -2.2 °F -2.6 °F 1027.7 in SW 6.4 mph 14.5 mph 97 % 0.0 in
09:02 -2.2 °F -2.6 °F 1027.7 in WSW 9.7 mph 14.5 mph 97 % 0.0 in
09:07 -2.3 °F -2.7 °F 1027.7 in WSW 8.0 mph 12.9 mph 97 % 0.0 in
09:12 -2.3 °F -2.7 °F 1027.7 in WSW 6.4 mph 12.9 mph 97 % 0.0 in
09:17 -2.3 °F -2.7 °F 1027.7 in SW 6.4 mph 12.9 mph 97 % 0.0 in
09:22 -2.3 °F -2.7 °F 1027.7 in WSW 4.8 mph 12.9 mph 97 % 0.0 in
09:32 -2.2 °F -2.6 °F 1027.7 in SW 6.4 mph 12.9 mph 97 % 0.0 in
09:37 -2.2 °F -2.6 °F 1027.7 in SW 6.4 mph 12.9 mph 97 % 0.0 in
09:42 -2.2 °F -2.6 °F 1027.7 in Calm   12.9 mph 97 % 0.0 in
09:52 -2.2 °F -2.6 °F 1027.7 in WSW 3.2 mph 12.9 mph 97 % 0.0 in
09:57 -2.2 °F -2.6 °F 1027.7 in WSW 1.6 mph 12.9 mph 97 % 0.0 in
10:02 -2.2 °F -2.6 °F 1027.7 in SW 4.8 mph 12.9 mph 97 % 0.0 in
10:07 -2.2 °F -2.6 °F 1027.7 in West 3.2 mph 11.3 mph 97 % 0.0 in
10:12 -2.1 °F -2.5 °F 1027.7 in SW 3.2 mph 8.0 mph 97 % 0.0 in
10:17 -2.1 °F -2.5 °F 1027.7 in WSW 3.2 mph 8.0 mph 97 % 0.0 in
10:22 -2.1 °F -2.5 °F 1027.7 in Calm   8.0 mph 97 % 0.0 in
10:27 -2.1 °F -2.5 °F 1027.7 in SW 3.2 mph 8.0 mph 97 % 0.0 in
10:32 -2.0 °F -2.4 °F 1027.7 in WSW 8.0 mph 8.0 mph 97 % 0.0 in
10:37 -2.0 °F -2.4 °F 1027.7 in SW 11.3 mph 11.3 mph 97 % 0.0 in
10:42 -2.0 °F -2.4 °F 1027.7 in Calm   14.5 mph 97 % 0.0 in
10:47 -1.9 °F -2.3 °F 1027.7 in Calm   14.5 mph 97 % 0.0 in
10:52 -1.9 °F -2.3 °F 1027.7 in WSW 6.4 mph 14.5 mph 97 % 0.0 in
10:57 -1.9 °F -2.3 °F 1027.7 in WSW 14.5 mph 14.5 mph 97 % 0.0 in
11:02 -1.8 °F -2.2 °F 1027.7 in SW 3.2 mph 14.5 mph 97 % 0.0 in
11:07 -1.8 °F -2.2 °F 1027.7 in West 9.7 mph 14.5 mph 97 % 0.0 in
11:12 -1.8 °F -2.2 °F 1027.7 in WSW 6.4 mph 14.5 mph 97 % 0.0 in
11:17 -1.7 °F -2.1 °F 1027.7 in WSW 8.0 mph 14.5 mph 97 % 0.0 in
11:22 -1.7 °F -2.1 °F 1027.7 in West 9.7 mph 14.5 mph 97 % 0.0 in
11:27 -1.7 °F -2.1 °F 1027.7 in West 9.7 mph 14.5 mph 97 % 0.0 in
11:32 -1.6 °F -2.0 °F 1027.3 in West 9.7 mph 16.1 mph 97 % 0.0 in
11:37 -1.6 °F -2.0 °F 1027.3 in WSW 11.3 mph 17.7 mph 97 % 0.0 in
11:42 -1.6 °F -2.0 °F 1027.3 in West 11.3 mph 17.7 mph 97 % 0.0 in
11:47 -1.6 °F -2.0 °F 1027.0 in West 4.8 mph 19.3 mph 97 % 0.0 in
11:52 -1.6 °F -2.0 °F 1027.0 in West 6.4 mph 19.3 mph 97 % 0.0 in
12:02 -1.4 °F -1.8 °F 1027.3 in WSW 6.4 mph 16.1 mph 97 % 0.0 in
12:07 -1.4 °F -1.8 °F 1027.3 in WNW 1.6 mph 14.5 mph 97 % 0.0 in
12:12 -1.4 °F -1.8 °F 1027.3 in WNW 4.8 mph 12.9 mph 97 % 0.0 in
12:17 -1.3 °F -1.7 °F 1027.3 in West 3.2 mph 9.7 mph 97 % 0.0 in
12:22 -1.4 °F -1.8 °F 1027.3 in West 3.2 mph 9.7 mph 97 % 0.0 in
12:27 -1.3 °F -1.7 °F 1027.3 in WSW 1.6 mph 9.7 mph 97 % 0.0 in
12:32 -1.3 °F -1.7 °F 1027.0 in WSW 3.2 mph 9.7 mph 97 % 0.0 in
12:37 -1.2 °F -1.6 °F 1027.0 in WSW 4.8 mph 6.4 mph 97 % 0.0 in
12:42 -1.2 °F -1.6 °F 1027.0 in WSW 6.4 mph 12.9 mph 97 % 0.0 in
12:47 -1.2 °F -1.6 °F 1027.0 in West 4.8 mph 12.9 mph 97 % 0.0 in
12:57 -1.1 °F -1.5 °F 1026.6 in West 8.0 mph 16.1 mph 97 % 0.0 in
13:02 -1.1 °F -1.5 °F 1026.6 in West 3.2 mph 16.1 mph 97 % 0.0 in
13:07 -1.0 °F -1.4 °F 1026.6 in WSW 8.0 mph 16.1 mph 97 % 0.0 in
13:12 -0.9 °F -1.2 °F 1026.6 in WSW 11.3 mph 14.5 mph 98 % 0.0 in
13:17 -0.9 °F -1.3 °F 1026.6 in WNW 14.5 mph 14.5 mph 97 % 0.0 in
13:22 -0.9 °F -1.3 °F 1026.6 in West 11.3 mph 16.1 mph 97 % 0.0 in
13:27 -0.9 °F -1.3 °F 1026.6 in West 12.9 mph 17.7 mph 97 % 0.0 in
13:37 -0.8 °F -1.2 °F 1026.3 in West 9.7 mph 17.7 mph 97 % 0.0 in
13:42 -0.8 °F -1.2 °F 1026.0 in WSW 19.3 mph 19.3 mph 97 % 0.0 in
13:47 -0.7 °F -1.1 °F 1026.0 in West 11.3 mph 25.7 mph 97 % 0.0 in
13:57 -0.6 °F -1.0 °F 1025.6 in West 6.4 mph 25.7 mph 97 % 0.0 in
14:02 -0.5 °F -0.9 °F 1025.6 in West 17.7 mph 22.5 mph 97 % 0.0 in
14:07 -0.4 °F -0.8 °F 1025.6 in WNW 12.9 mph 24.1 mph 97 % 0.0 in
14:12 -0.4 °F -0.8 °F 1025.6 in West 9.7 mph 24.1 mph 97 % 0.0 in
14:17 -0.3 °F -0.7 °F 1025.6 in West 9.7 mph 24.1 mph 97 % 0.0 in
14:27 -0.2 °F -0.6 °F 1024.9 in WSW 11.3 mph 22.5 mph 97 % 0.0 in
14:32 -0.1 °F -0.5 °F 1024.9 in West 9.7 mph 22.5 mph 97 % 0.0 in
14:42 -0.1 °F -0.7 °F 1024.9 in West 12.9 mph 19.3 mph 96 % 0.0 in
14:47 0.0 °F -0.6 °F 1024.9 in WSW 9.7 mph 24.1 mph 96 % 0.0 in
14:52 0.1 °F -0.5 °F 1024.9 in WNW 8.0 mph 24.1 mph 96 % 0.0 in
14:57 0.2 °F -0.4 °F 1024.9 in West 6.4 mph 24.1 mph 96 % 0.0 in
15:02 0.2 °F -0.5 °F 1024.9 in WNW 17.7 mph 24.1 mph 95 % 0.0 in
15:12 0.2 °F -0.5 °F 1024.9 in WNW 8.0 mph 24.1 mph 95 % 0.0 in
15:17 0.3 °F -0.4 °F 1025.3 in WNW 1.6 mph 24.1 mph 95 % 0.0 in
15:22 0.4 °F -0.3 °F 1025.3 in SW 3.2 mph 24.1 mph 95 % 0.0 in
15:27 0.4 °F -0.3 °F 1025.3 in West 1.6 mph 16.1 mph 95 % 0.0 in
15:32 0.4 °F -0.3 °F 1025.3 in WNW 1.6 mph 9.7 mph 95 % 0.0 in
15:37 0.5 °F -0.2 °F 1025.3 in WSW 1.6 mph 9.7 mph 95 % 0.0 in
15:42 0.6 °F -0.1 °F 1025.3 in West 1.6 mph 12.9 mph 95 % 0.0 in
15:47 0.6 °F -0.1 °F 1025.3 in West 6.4 mph 12.9 mph 95 % 0.0 in
15:52 0.7 °F 0.0 °F 1025.3 in Calm   11.3 mph 95 % 0.0 in
15:57 0.7 °F 0.0 °F 1025.6 in WSW 4.8 mph 9.7 mph 95 % 0.0 in
16:07 0.7 °F 0.0 °F 1025.6 in SW 1.6 mph 9.7 mph 95 % 0.0 in
16:17 0.7 °F 0.0 °F 1025.3 in SSW 4.8 mph 4.8 mph 95 % 0.0 in
16:22 0.8 °F 0.2 °F 1025.3 in SW 1.6 mph 6.4 mph 96 % 0.0 in
16:27 0.8 °F 0.2 °F 1025.3 in SW 6.4 mph 6.4 mph 96 % 0.0 in
16:32 0.9 °F 0.3 °F 1025.3 in SW 4.8 mph 8.0 mph 96 % 0.0 in
16:37 0.9 °F 0.3 °F 1025.3 in WNW 1.6 mph 8.0 mph 96 % 0.0 in
16:47 1.0 °F 0.4 °F 1025.3 in West 1.6 mph 9.7 mph 96 % 0.0 in
16:52 1.1 °F 0.5 °F 1025.3 in West 3.2 mph 9.7 mph 96 % 0.0 in
17:02 1.1 °F 0.4 °F 1025.3 in WSW 4.8 mph 8.0 mph 95 % 0.0 in
17:07 1.2 °F 0.5 °F 1025.3 in WNW 4.8 mph 11.3 mph 95 % 0.0 in
17:17 1.3 °F 0.6 °F 1024.9 in West 3.2 mph 11.3 mph 95 % 0.0 in
17:27 1.4 °F 0.7 °F 1025.3 in West 3.2 mph 12.9 mph 95 % 0.0 in
17:32 1.4 °F 0.7 °F 1025.3 in WNW 3.2 mph 12.9 mph 95 % 0.0 in
17:37 1.4 °F 0.7 °F 1025.3 in West 3.2 mph 12.9 mph 95 % 0.0 in
17:42 1.5 °F 0.8 °F 1025.3 in WNW 3.2 mph 16.1 mph 95 % 0.0 in
17:47 1.5 °F 0.8 °F 1025.3 in NW 3.2 mph 16.1 mph 95 % 0.0 in
17:52 1.5 °F 0.8 °F 1025.3 in West 8.0 mph 16.1 mph 95 % 0.0 in
17:57 1.5 °F 0.8 °F 1025.3 in WNW 14.5 mph 14.5 mph 95 % 0.0 in
18:07 1.5 °F 0.8 °F 1025.3 in West 3.2 mph 14.5 mph 95 % 0.0 in
18:12 1.5 °F 0.8 °F 1025.3 in NW 9.7 mph 14.5 mph 95 % 0.3 in
18:17 1.5 °F 0.8 °F 1025.3 in WNW 16.1 mph 20.9 mph 95 % 0.3 in
18:22 1.5 °F 0.8 °F 1025.3 in WSW 4.8 mph 20.9 mph 95 % 0.3 in
18:32 1.4 °F 0.7 °F 1025.6 in WNW 12.9 mph 17.7 mph 95 % 0.3 in
18:37 1.4 °F 0.7 °F 1025.6 in West 9.7 mph 20.9 mph 95 % 0.3 in
18:47 1.4 °F 0.7 °F 1025.6 in West 12.9 mph 20.9 mph 95 % 0.3 in
18:52 1.4 °F 0.8 °F 1025.6 in WNW 14.5 mph 20.9 mph 96 % 0.3 in
18:57 1.4 °F 0.7 °F 1025.6 in West 8.0 mph 20.9 mph 95 % 0.3 in
19:07 1.4 °F 0.8 °F 1025.6 in NW 6.4 mph 20.9 mph 96 % 0.0 in
19:12 1.4 °F 0.8 °F 1025.6 in NW 12.9 mph 24.1 mph 96 % 0.0 in
19:22 1.4 °F 0.8 °F 1025.6 in WNW 8.0 mph 24.1 mph 96 % 0.0 in
19:32 1.4 °F 0.8 °F 1025.6 in WNW 4.8 mph 19.3 mph 96 % 0.0 in
19:37 1.4 °F 0.8 °F 1025.6 in West 6.4 mph 17.7 mph 96 % 0.0 in
19:42 1.5 °F 0.9 °F 1025.6 in West 12.9 mph 17.7 mph 96 % 0.0 in
19:47 1.5 °F 0.9 °F 1025.6 in NW 3.2 mph 16.1 mph 96 % 0.0 in
19:52 1.6 °F 1.0 °F 1025.6 in West 6.4 mph 16.1 mph 96 % 0.3 in
19:57 1.6 °F 1.0 °F 1026.0 in WSW 3.2 mph 16.1 mph 96 % 0.3 in
20:02 1.6 °F 1.0 °F 1026.0 in WNW 12.9 mph 16.1 mph 96 % 0.3 in
20:07 1.6 °F 1.0 °F 1026.0 in WNW 11.3 mph 16.1 mph 96 % 0.3 in
20:12 1.7 °F 1.1 °F 1026.0 in NW 8.0 mph 16.1 mph 96 % 0.3 in
20:17 1.7 °F 1.1 °F 1026.0 in NW 9.7 mph 17.7 mph 96 % 0.3 in
20:22 1.6 °F 1.0 °F 1026.0 in WNW 9.7 mph 17.7 mph 96 % 0.3 in
20:32 1.7 °F 1.1 °F 1026.0 in WNW 4.8 mph 16.1 mph 96 % 0.3 in
20:37 1.7 °F 1.1 °F 1026.0 in WNW 11.3 mph 14.5 mph 96 % 0.3 in
20:42 1.7 °F 1.1 °F 1026.0 in WNW 1.6 mph 17.7 mph 96 % 0.3 in
20:47 1.7 °F 1.1 °F 1026.3 in WNW 14.5 mph 17.7 mph 96 % 0.0 in
20:57 1.8 °F 1.2 °F 1026.3 in WNW 11.3 mph 16.1 mph 96 % 0.0 in
21:02 1.8 °F 1.2 °F 1026.3 in West 8.0 mph 16.1 mph 96 % 0.0 in
21:07 1.8 °F 1.2 °F 1026.0 in West 4.8 mph 16.1 mph 96 % 0.0 in
21:12 1.9 °F 1.3 °F 1026.3 in WNW 8.0 mph 14.5 mph 96 % 0.0 in
21:22 1.9 °F 1.3 °F 1026.6 in NW 4.8 mph 14.5 mph 96 % 0.0 in
21:27 2.0 °F 1.4 °F 1026.6 in WNW 4.8 mph 14.5 mph 96 % 0.0 in
21:32 2.0 °F 1.4 °F 1026.6 in NW 3.2 mph 12.9 mph 96 % 0.0 in
21:37 2.0 °F 1.4 °F 1026.6 in NW 8.0 mph 14.5 mph 96 % 0.0 in
21:42 2.1 °F 1.7 °F 1026.6 in WNW 3.2 mph 14.5 mph 97 % 0.3 in
21:52 2.2 °F 1.8 °F 1026.6 in WNW 6.4 mph 12.9 mph 97 % 0.3 in
21:57 2.2 °F 1.8 °F 1027.0 in West 4.8 mph 12.9 mph 97 % 0.3 in
22:02 2.2 °F 1.8 °F 1026.6 in WNW 4.8 mph 12.9 mph 97 % 0.3 in
22:07 2.2 °F 1.8 °F 1026.6 in WNW 1.6 mph 11.3 mph 97 % 0.3 in
22:12 2.3 °F 1.9 °F 1026.6 in WNW 8.0 mph 11.3 mph 97 % 0.3 in
22:17 2.3 °F 1.9 °F 1026.6 in WNW 8.0 mph 14.5 mph 97 % 0.3 in
22:22 2.4 °F 2.0 °F 1027.0 in WNW 8.0 mph 14.5 mph 97 % 0.3 in
22:27 2.3 °F 1.9 °F 1027.0 in West 3.2 mph 14.5 mph 97 % 0.3 in
22:32 2.3 °F 1.9 °F 1027.0 in North 1.6 mph 12.9 mph 97 % 0.3 in
22:37 2.3 °F 1.9 °F 1027.0 in WNW 3.2 mph 12.9 mph 97 % 0.3 in
22:42 2.3 °F 1.9 °F 1027.0 in WNW 1.6 mph 8.0 mph 97 % 0.0 in
22:52 2.2 °F 1.6 °F 1027.0 in WNW 3.2 mph 8.0 mph 96 % 0.0 in
22:57 2.2 °F 1.8 °F 1027.0 in NW 1.6 mph 9.7 mph 97 % 0.0 in
23:02 2.2 °F 1.6 °F 1027.0 in North 3.2 mph 9.7 mph 96 % 0.0 in
23:07 2.2 °F 1.6 °F 1027.0 in WNW 6.4 mph 9.7 mph 96 % 0.0 in
23:12 2.2 °F 1.6 °F 1027.0 in West 4.8 mph 11.3 mph 96 % 0.0 in
23:17 2.2 °F 1.6 °F 1027.0 in Calm   11.3 mph 96 % 0.0 in
23:22 2.2 °F 1.6 °F 1027.3 in NW 4.8 mph 11.3 mph 96 % 0.0 in
23:27 2.2 °F 1.6 °F 1027.3 in NW 4.8 mph 11.3 mph 96 % 0.0 in
23:32 2.2 °F 1.6 °F 1027.3 in NNW 4.8 mph 8.0 mph 96 % 0.0 in
23:37 2.2 °F 1.6 °F 1027.3 in NW 3.2 mph 8.0 mph 96 % 0.0 in
23:42 2.2 °F 1.6 °F 1027.3 in NW 1.6 mph 8.0 mph 96 % 0.0 in
Meteo18
Compliments of Weather Underground - 4 mb

Script developed by  Jim McMurry - jmcmurry@mwt.net Adapted for the template by  Wim van der Kuil - Leuven-Template.eu

You find our weather info also at:

European Weather Network

Weather Underground

Equipment we use:

Weather-station
Davis Vue

Weather-program
Meteobridge

Weather-server
Raspberry PI 2 B+

Provider
1 and 1

Davis Vue

Meteobridge

Raspberry PI 2 B+

1 and 1